{"data":{"norad_id":48300,"epoch":"2026-05-25T03:38:02.200704Z","epoch_age_seconds":61883,"freshness":"FRESH","line1":"1 48300U 21036AA  26145.15141436  .00001804  00000+0  69875-4 0  9991","line2":"2 48300  53.1584  92.5391 0001211  90.6768 269.4372 15.31701455279949","mean_motion":15.31701455,"eccentricity":0.0001211,"inclination_deg":53.1584,"raan_deg":92.5391,"arg_perigee_deg":90.6768,"mean_anomaly_deg":269.4372,"bstar":6.9875e-5,"rev_number":27994,"period_min":94.013098655704,"perigee_km":469.90625947091,"apogee_km":471.56505642867,"semimajor_km":6848.8726579498,"source":"CELESTRAK","updated_at":"2026-05-25T13:38:16.676120Z"}}